Location: Bégole
(43.1574°N, 0.3291°E)
Time: 01:12:17
(UTC+00:00)

deb Delta 89 - Pass Details

Date: 29 February 2024
Orbit: 714 x 2021 km, 97.5° (Epoch: 13 April)

Event Time Altitude Azimuth Distance (km) Brightness Sun altitude
Rises 01:36:47 0° 14° (NNE) 5,487 ? -50.0°
Reaches altitude 10° 01:40:21 10° 19° (NNE) 4,469 ? -49.6°
Enters shadow 01:49:54 48° 73° (ENE) 2,333 ? -48.6°
